Location: Newark
(33.2833°N, 8.3333°W)
Time: 05:55:24
(UTC+00:00)

Envisat - Pass Details

Date: 18 September 2019
Orbit: 764 x 766 km, 98.1° (Epoch: 16 October)

Event Time Altitude Azimuth Distance (km) Brightness Sun altitude
Rises 18:53:30 0° 170° (S) 3,216 6.1 -4.5°
Reaches altitude 10° 18:55:48 10° 171° (S) 2,294 5.3 -4.9°
Maximum altitude 19:00:51 78° 257° (WSW) 785 3.2 -6.0°
Drops below altitude 10° 19:05:57 10° 345° (NNW) 2,307 5.8 -7.1°
Sets 19:08:16 0° 347° (NNW) 3,237 6.5 -7.5°
